Location: Austin
(30.3000°N, 97.7500°W)
Time: 01:26:55
(UTC-05:00)

Daily predictions for brighter satellites

Satellite Brightness Start Highest point End
(mag) Time Altitude Azimuth Time Altitude Azimuth Time Altitude Azimuth
H-2A R/B 4.0 00:01:22 10° N 00:03:59 29° NNW 00:03:59 29° NNW
Milstar 3 Cent rocket 3.2 00:09:05 10° W 00:23:22 26° E 00:29:45 10° E
USA 229 DEB 4.1 00:21:39 49° NNE 00:21:39 49° NNE 00:26:19 10° NNE
USA 229 4.1 00:21:47 49° NNE 00:21:47 49° NNE 00:26:25 10° NNE
Cosmos 2369 Rocket 4.4 00:21:56 10° WNW 00:24:18 15° W 00:24:18 15° W
Cosmos 1833 Rocket 4.3 01:29:47 31° NNW 01:29:47 31° NNW 01:33:10 10° N
Cosmos 1980 Rocket 4.0 01:43:21 10° N 01:47:02 25° NE 01:47:02 25° NE
USA 234 3.9 02:07:17 46° NW 02:07:17 46° NW 02:11:39 10° NW
Cosmos 2082 Rocket 3.6 02:22:50 32° NNW 02:22:50 32° NNW 02:26:16 10° N
Cosmos 2344 3.7 02:24:50 61° E 02:24:50 61° E 02:31:13 10° NE
Resurs 1-4 Rocket 4.0 02:20:18 10° NE 02:23:01 23° ENE 02:23:01 23° ENE
Iridium 4 Rocket 4.5 02:44:11 50° NNE 02:44:11 50° NNE 02:48:29 10° N
IDEFIX/ARIANE 42P 4.2 02:39:36 10° NE 02:42:57 28° ENE 02:42:57 28° ENE
SL-16 R/B 4.4 02:43:08 10° NNE 02:47:13 20° ENE 02:50:14 14° E
Lacrosse 5 3.8 02:50:52 23° ENE 02:50:52 23° ENE 02:53:04 10° NE
Milstar 3 Cent rocket 4.4 02:52:25 47° WSW 02:56:27 60° SSW 03:19:35 10° ESE
CZ-2D R/B 2.9 02:57:34 10° NNE 03:01:31 48° NE 03:01:31 48° NE
Lacrosse 5 rocket 3.4 03:02:35 10° NNW 03:05:36 28° NNE 03:05:36 28° NNE
Tiangong 1.6 03:16:36 10° NNE 03:16:36 10° NNE 03:16:37 10° NNE
Nadezhda 4 Rocket 4.0 03:20:44 10° N 03:26:23 69° NW 03:26:23 69° NW
Cosmos 1092 Rocket 4.3 03:25:47 10° N 03:31:53 61° E 03:33:03 52° SE
Cosmos 1980 Rocket 4.1 03:27:02 10° NW 03:28:44 18° NW 03:28:44 18° NW
Cosmos 1238 Rocket 3.8 03:27:41 10° N 03:33:39 79° WNW 03:33:39 79° WNW
Cosmos 2278 3.9 03:28:48 10° NNW 03:33:32 63° NW 03:33:32 63° NW
CENTAUR R/B 3.3 03:39:23 10° NNW 03:48:12 88° ENE 03:57:24 10° SSE
NOSS 3-2 (A) 4.3 03:40:06 10° NNW 03:48:13 79° ENE 03:57:16 10° SSE
Cosmos 1606 Rocket 4.5 03:44:20 10° N 03:48:30 43° E 03:48:41 43° E
Cosmos 2228 4.1 03:47:02 10° N 03:49:43 38° NNW 03:49:43 38° NNW
H-2A R/B (2) 3.9 03:52:23 39° S 03:54:54 48° SE 04:43:50 10° ENE
H-2A R/B (2) 3.9 03:52:24 39° S 03:54:54 48° SE 04:43:50 10° ENE
SL-16 R/B 2.5 03:52:53 44° SSE 03:54:58 80° ENE 04:01:08 10° N
CZ-4 R/B 3.8 03:51:07 10° NNE 03:55:43 83° N 03:55:43 83° N
AQUA 4.2 03:53:38 10° N 03:57:39 51° NW 03:57:39 51° NW
Delta 168 4.0 03:59:00 47° SSE 03:59:00 47° SSE 04:04:59 10° E
Cosmos 2026 Rocket 3.8 03:53:09 10° N 03:59:18 83° W 04:00:36 58° S
Meteor 1-28 Rocket 4.3 04:01:49 39° N 04:01:49 39° N 04:04:15 10° N
ADEOS II 2.3 03:56:13 10° N 04:01:17 54° WNW 04:01:17 54° WNW
Resurs 1-4 Rocket 3.3 03:59:58 10° NNW 04:04:05 28° WNW 04:04:05 28° WNW
Geosat 3.9 04:05:46 69° W 04:05:46 69° W 04:10:34 10° NNW
Cosmos 1400 Rocket 3.9 04:09:14 36° NNW 04:09:14 36° NNW 04:11:57 10° N
ERS-2 4.2 04:06:58 10° NE 04:09:19 18° E 04:09:45 17° ESE
Cosmos 1634 Rocket 4.2 04:09:11 48° WSW 04:09:53 51° W 04:15:56 10° N
MSX 4.3 04:05:40 10° N 04:11:04 44° WNW 04:11:39 42° W
NOSS 3-4 (C) 3.4 04:10:29 51° W 04:11:14 55° WNW 04:16:54 10° NNE
NOSS 3-4 (A) 3.4 04:10:41 50° W 04:11:29 54° WNW 04:17:09 10° NNE
IRS P6 4.5 04:06:21 10° N 04:11:38 79° WNW 04:12:25 64° SW
CZ-2C R/B 4.3 04:10:38 10° SE 04:15:09 31° ENE 04:19:46 10° N
SL-27 R/B 3.3 04:17:14 45° NE 04:17:14 45° NE 04:19:43 10° NNE
TIMED 4.4 04:19:10 74° SSE 04:19:29 81° ESE 04:23:49 10° NNE
Cosmos 2237 4.1 04:14:35 10° NNW 04:20:13 66° WSW 04:21:41 47° SSW
IDEFIX/ARIANE 42P 3.9 04:19:27 10° NNW 04:23:33 24° WNW 04:23:43 24° WNW
Cosmos 1441 Rocket 3.4 04:20:16 10° N 04:24:03 65° E 04:24:33 57° SE
ALOS 2.3 04:20:12 10° NNE 04:24:51 74° ESE 04:26:08 47° S
Cosmos 1606 3.9 04:21:29 10° NNE 04:24:58 38° E 04:26:37 24° SE
USA 215 3.7 04:19:45 10° NE 04:26:05 51° SE 04:29:10 29° S
BREEZE-M DEB (TANK) 3.6 04:25:35 45° S 04:26:31 56° SE 04:35:59 10° NE
Cosmos 2322 Rocket 2.0 04:25:16 10° NNW 04:30:54 72° WSW 04:34:13 25° S
Lacrosse 5 3.2 04:30:03 24° WNW 04:31:25 27° NW 04:35:43 10° NNE
SL-16 R/B 2.5 04:26:06 10° NW 04:31:27 44° WSW 04:31:59 43° WSW
Cosmos 2360 Rocket 2.2 04:28:25 10° NNW 04:34:03 81° ENE 04:39:40 10° SSE
Cosmos 1869 3.4 04:30:35 10° NNW 04:34:23 56° W 04:34:23 56° W
Cosmos 2180 Rocket 4.4 04:32:05 37° SSW 04:34:36 71° W 04:40:43 10° N
OAO 3 Copernicus 4.4 04:36:38 45° SSW 04:37:52 59° SSE 04:42:51 10° ENE
Cosmos 1315 Rocket 2.9 04:36:56 44° SSE 04:38:01 68° E 04:41:53 10° NNE
Meteor 1-27 4.1 04:32:53 10° N 04:38:39 78° W 04:42:13 24° S
SEDSat Delta rocket 3.4 04:37:32 32° W 04:39:52 78° N 04:45:29 10° E
Cosmos 614 Rocket 4.0 04:35:05 10° NNW 04:40:19 84° ENE 04:45:28 10° SSE
Cosmos 2084 3.2 04:36:59 10° NW 04:40:50 58° WSW 04:40:56 58° SW
Cosmos 1269 Rocket 3.9 04:36:01 10° NNW 04:41:19 89° WSW 04:46:36 10° SSE
CZ-2D R/B 4.1 04:40:14 10° NW 04:42:12 12° WNW 04:42:49 12° WNW
DELTA 2 R/B (1) 3.7 04:41:43 22° W 04:45:04 48° SW 04:50:24 10° SE
Okean 1-7 Rocket 4.0 04:43:36 22° SSE 04:46:22 60° E 04:50:48 10° NNE
CZ-2C R/B 3.5 04:42:30 10° NNE 04:47:57 62° E 04:51:57 17° S
RESURS DK-1 3.6 04:46:15 20° SSE 04:48:34 36° ESE 04:52:21 10° NE
Tiangong 1.0 04:51:22 10° NNW 04:52:37 12° N 04:53:52 10° NNE
Cosmos 2058 Rocket 3.0 04:48:15 10° N 04:52:44 80° W 04:55:42 21° S
Cosmos 2266 Rocket 4.2 04:47:32 10° N 04:53:48 73° E 04:59:55 10° S
NOSS 3-2 (C) 4.2 04:45:59 10° NNW 04:54:08 76° WSW 05:03:10 10° SSE
Cosmos 2219 Rocket 3.0 04:48:53 10° N 04:54:20 51° ENE 04:59:45 10° SE
Cosmos 2058 3.6 04:51:35 16° SSE 04:54:38 52° E 04:58:37 10° NNE
Cosmos 1346 Rocket 2.7 04:54:08 10° NNW 04:57:58 59° W 04:59:34 31° SSW
Cosmos 2297 Rocket 3.4 04:54:14 10° S 04:59:24 37° ESE 05:04:34 10° NE
PAYLOAD A 4.0 04:55:22 10° NNE 05:00:27 83° ESE 05:04:37 17° S
IRS-1D 3.8 04:58:39 10° N 05:03:40 51° WNW 05:06:27 25° SW
GEOS 3 Rocket 3.7 04:59:48 10° NNE 05:05:11 76° WNW 05:08:37 23° SW
Cosmos 2333 Rocket 2.1 05:00:19 10° NNW 05:05:58 75° WSW 05:11:34 10° SSE
Cosmos 1758 Rocket 3.9 05:02:11 13° S 05:05:58 66° E 05:10:20 10° NNE
Cosmos 2333 4.1 05:03:27 10° NNW 05:09:04 79° WSW 05:14:38 10° SSE
COSMOS 2428 4.1 05:08:34 10° N 05:13:56 41° ENE 05:19:15 10° SE
USA 238 DEB 4.0 05:10:30 10° NW 05:18:04 70° WSW 05:25:55 10° SSE
USA 238 4.0 05:10:36 10° NW 05:18:10 70° WSW 05:26:02 10° SSE
Cosmos 2322 4.2 05:15:45 10° NNW 05:21:25 66° ENE 05:27:05 10° SSE
YAOGAN 6 2.3 05:18:15 10° N 05:21:38 90° WNW 05:24:32 14° SSW
OAO 2 Rocket 3.6 05:17:51 16° W 05:21:57 71° NNW 05:27:13 10° ENE
CBERS-1 4.0 05:16:58 10° N 05:22:04 73° WNW 05:26:57 11° SSW
METEOR-M 4.3 05:19:04 10° N 05:24:15 54° WNW 05:28:49 13° SSW
Cosmos 2251 Rocket 4.3 05:21:50 10° N 05:27:06 57° ENE 05:32:21 10° SSE
Cosmos 2227 Rocket 3.5 05:22:55 10° S 05:28:03 38° ESE 05:33:13 10° NE
CZ-2C R/B 2.9 05:27:16 10° N 05:31:34 38° WNW 05:35:05 14° SW
YAOGAN 11 4.4 05:27:43 10° S 05:32:05 47° W 05:36:27 10° NNW
SL-08 ROCKET BODY 4.3 05:28:46 10° N 05:34:38 84° W 05:40:27 10° S
USA 276 2.2 05:34:30 10° WNW 05:37:27 47° SW 05:40:21 10° SSE
Cosmos 1484 Rocket 2.6 05:34:09 10° NNE 05:37:48 83° E 05:41:25 10° S
CENTAUR R/B 4.5 05:32:38 10° WNW 05:38:15 18° WSW 05:43:55 10° SW
SL-16 R/B 4.3 05:37:58 10° WSW 05:39:01 11° W 05:40:24 10° W
ATLAS 2AS CENTAUR R/B 3.1 05:32:45 10° SSW 05:40:26 81° ESE 05:47:57 10° NNE
ERS-2 3.8 05:39:33 10° NNW 05:41:35 15° WNW 05:43:13 12° WSW
Cosmos 1420 Rocket 4.0 05:41:20 10° SSW 05:46:32 78° WNW 05:51:47 10° NNE
KM-V1 4.2 05:44:03 12° WSW 05:46:54 86° SSE 05:52:11 10° E
ATLAS CENTAUR R/B 4.2 05:45:59 10° SE 05:48:23 14° ESE 05:50:45 10° ENE
Cosmos 407 Rocket 3.7 05:45:43 10° NNW 05:50:52 76° ENE 05:55:57 10° SSE
Helios 1A 2.9 05:51:05 10° S 05:55:08 66° WSW 05:59:15 10° NNW
CZ-2C R/B 3.7 05:51:16 10° SSW 05:55:22 24° W 05:59:32 10° NW
H-2A R/B 4.3 05:53:13 10° NE 05:57:43 27° E 06:02:07 10° SSE
NOAA 11 4.3 05:53:23 10° N 05:58:47 64° WNW 06:04:09 10° SSW
Cosmos 2221 4.4 05:58:47 10° NNE 06:02:47 35° E 06:06:44 10° SSE
CZ-4C R/B 3.3 06:00:28 10° NW 06:08:24 66° WSW 06:17:13 10° SSE
